START_TIME,STEP,MOV.,A46,t_acc.,A13,t_acc.,M47,t_acc.,A17,t_acc.,A28,t_acc.,M38,t_acc.
1979-03-09 00:00:23.520 ,2,0,,0,0.,4.8,0.,4.8,,0,0.,4.8,0.,4.8
1979-03-09 00:00:28.320 ,2,0,,0,0.,4.8,0.,4.8,,0,0.,4.8,1.,4.8
1979-03-09 00:00:33.120 ,2,0,,0,0.,4.8,0.,4.8,,0,0.,4.8,0.,4.8
1979-03-09 00:00:37.920 ,2,0,,0,0.,4.8,0.,4.8,,0,0.,4.8,0.,4.8
1979-03-09 00:00:42.720 ,2,0,,0,0.,4.8,0.,4.8,,0,0.,4.8,0.,4.8
1979-03-09 00:00:47.520 ,3,0,,0,0.,4.8,0.,4.8,,0,0.,4.8,0.,4.8
1979-03-09 00:00:52.320 ,3,0,,0,0.,4.8,0.,4.8,,0,0.,4.8,0.,4.8
1979-03-09 00:00:57.120 ,3,0,,0,0.,4.8,0.,4.8,,0,0.,4.8,0.,4.8
1979-03-09 00:01:01.920 ,3,0,,0,0.,4.8,0.,4.8,,0,0.,4.8,0.,4.8
1979-03-09 00:01:06.720 ,3,0,,0,0.,4.8,0.,4.8,,0,0.,4.8,0.,4.8
1979-03-09 00:01:11.520 ,4,0,,0,1.,4.8,0.,4.8,,0,0.,4.8,0.,4.8
1979-03-09 00:01:16.320 ,4,0,,0,0.,4.8,0.,4.8,,0,0.,4.8,0.,4.8
1979-03-09 00:01:21.120 ,4,0,,0,1.,4.8,0.,4.8,,0,0.,4.8,0.,4.8
1979-03-09 00:01:25.920 ,4,0,,0,0.,4.8,0.,4.8,,0,0.,4.8,0.,4.8
1979-03-09 00:01:30.720 ,4,0,,0,0.,4.8,0.,4.8,,0,0.,4.8,0.,4.8
1979-03-09 00:01:35.520 ,5,0,,0,0.,4.8,0.,4.8,,0,0.,4.8,0.,4.8
1979-03-09 00:01:40.320 ,5,0,,0,0.,4.8,0.,4.8,,0,0.,4.8,1.,4.8
1979-03-09 00:01:45.120 ,5,0,,0,0.,4.8,0.,4.8,,0,0.,4.8,0.,4.8
1979-03-09 00:01:49.920 ,5,0,,0,0.,4.8,0.,4.8,,0,0.,4.8,0.,4.8
1979-03-09 00:01:54.720 ,5,0,,0,0.,4.8,0.,4.8,,0,0.,4.8,0.,4.8
1979-03-09 00:01:59.520 ,6,0,,0,0.,4.8,0.,4.8,,0,0.,4.8,0.,4.8
1979-03-09 00:02:04.320 ,6,0,,0,0.,4.8,0.,4.8,,0,0.,4.8,0.,4.8
1979-03-09 00:02:09.120 ,6,0,,0,1.,4.8,0.,4.8,,0,0.,4.8,0.,4.8
1979-03-09 00:02:13.920 ,6,0,,0,0.,4.8,0.,4.8,,0,0.,4.8,0.,4.8
1979-03-09 00:02:18.720 ,6,0,,0,0.,4.8,0.,4.8,,0,0.,4.8,0.,4.8
1979-03-09 00:02:23.520 ,7,0,,0,0.,4.8,0.,4.8,,0,0.,4.8,0.,4.8
1979-03-09 00:02:28.320 ,7,0,,0,0.,4.8,0.,4.8,,0,0.,4.8,0.,4.8
1979-03-09 00:02:33.120 ,7,0,,0,1.,4.8,0.,4.8,,0,0.,4.8,0.,4.8
1979-03-09 00:02:37.920 ,7,0,,0,6.,4.8,0.,4.8,,0,0.,4.8,0.,4.8
1979-03-09 00:02:42.720 ,7,0,,0,6.,4.8,0.,4.8,,0,0.,4.8,0.,4.8
1979-03-09 00:02:47.520 ,7,0,,0,5.,4.8,0.,4.8,,0,0.,4.8,0.,4.8
1979-03-09 00:02:52.320 ,7,0,,0,2.,4.8,0.,4.8,,0,0.,4.8,0.,4.8
1979-03-09 00:02:57.120 ,7,0,,0,8.,4.8,0.,4.8,,0,0.,4.8,0.,4.8
1979-03-09 00:03:01.920 ,7,0,,0,0.,4.8,0.,4.8,,0,0.,4.8,0.,4.8
1979-03-09 00:03:06.720 ,7,0,,0,0.,4.8,0.,4.8,,0,0.,4.8,0.,4.8
1979-03-09 00:03:11.520 ,6,0,,0,1.,4.8,0.,4.8,,0,0.,4.8,0.,4.8
1979-03-09 00:03:16.320 ,6,0,,0,0.,4.8,0.,4.8,,0,0.,4.8,0.,4.8
1979-03-09 00:03:21.120 ,6,0,,0,0.,4.8,0.,4.8,,0,0.,4.8,0.,4.8
1979-03-09 00:03:25.920 ,6,0,,0,0.,4.8,0.,4.8,,0,0.,4.8,0.,4.8
1979-03-09 00:03:30.720 ,6,0,,0,0.,4.8,0.,4.8,,0,0.,4.8,0.,4.8
1979-03-09 00:03:35.520 ,5,0,,0,0.,4.8,0.,4.8,,0,0.,4.8,0.,4.8
1979-03-09 00:03:40.320 ,5,0,,0,0.,4.8,0.,4.8,,0,0.,4.8,0.,4.8
1979-03-09 00:03:45.120 ,5,0,,0,0.,4.8,0.,4.8,,0,0.,4.8,0.,4.8
1979-03-09 00:03:49.920 ,5,0,,0,0.,4.8,0.,4.8,,0,0.,4.8,0.,4.8
1979-03-09 00:03:54.720 ,5,0,,0,0.,4.8,0.,4.8,,0,0.,4.8,0.,4.8
1979-03-09 00:03:59.520 ,4,0,,0,0.,4.8,0.,4.8,,0,0.,4.8,0.,4.8
1979-03-09 00:04:04.320 ,4,0,,0,0.,4.8,0.,4.8,,0,0.,4.8,0.,4.8
1979-03-09 00:04:09.120 ,4,0,,0,0.,4.8,0.,4.8,,0,0.,4.8,0.,4.8
1979-03-09 00:04:13.920 ,4,0,,0,0.,4.8,0.,4.8,,0,0.,4.8,0.,4.8
1979-03-09 00:04:18.720 ,4,0,,0,0.,4.8,0.,4.8,,0,0.,4.8,0.,4.8
1979-03-09 00:04:23.520 ,3,0,,0,0.,4.8,0.,4.8,,0,0.,4.8,0.,4.8
1979-03-09 00:04:28.320 ,3,0,,0,0.,4.8,0.,4.8,,0,0.,4.8,0.,4.8
1979-03-09 00:04:33.120 ,3,0,,0,0.,4.8,0.,4.8,,0,0.,4.8,0.,4.8
1979-03-09 00:04:37.920 ,3,0,,0,0.,4.8,0.,4.8,,0,0.,4.8,0.,4.8
1979-03-09 00:04:42.720 ,3,0,,0,0.,4.8,0.,4.8,,0,0.,4.8,0.,4.8
1979-03-09 00:04:47.520 ,2,0,,0,0.,4.8,0.,4.8,,0,0.,4.8,0.,4.8
1979-03-09 00:04:52.320 ,2,0,,0,0.,4.8,0.,4.8,,0,0.,4.8,0.,4.8
1979-03-09 00:04:57.120 ,2,0,,0,0.,4.8,0.,4.8,,0,0.,4.8,0.,4.8
1979-03-09 00:05:01.920 ,2,0,,0,0.,4.8,0.,4.8,,0,0.,4.8,0.,4.8
1979-03-09 00:05:06.720 ,2,0,,0,0.,4.8,0.,4.8,,0,0.,4.8,0.,4.8
1979-03-09 00:05:11.520 ,1,0,,0,1.,4.8,0.,4.8,,0,0.,4.8,0.,4.8
1979-03-09 00:05:16.320 ,1,0,,0,1.,4.8,0.,4.8,,0,0.,4.8,0.,4.8
1979-03-09 00:05:21.120 ,1,0,,0,0.,4.8,0.,4.8,,0,0.,4.8,0.,4.8
1979-03-09 00:05:25.920 ,1,0,,0,0.,4.8,0.,4.8,,0,0.,4.8,0.,4.8
1979-03-09 00:05:30.720 ,1,0,,0,0.,4.8,0.,4.8,,0,0.,4.8,0.,4.8
1979-03-09 00:05:35.520 ,0,0,,0,0.,4.8,0.,4.8,,0,0.,4.8,0.,4.8
1979-03-09 00:05:40.320 ,0,0,,0,0.,4.8,0.,4.8,,0,0.,4.8,0.,4.8
1979-03-09 00:05:45.120 ,0,0,,0,0.,4.8,0.,4.8,,0,0.,4.8,0.,4.8
1979-03-09 00:05:49.920 ,0,0,,0,0.,4.8,0.,4.8,,0,0.,4.8,0.,4.8
1979-03-09 00:05:54.720 ,0,0,,0,1.,4.8,0.,4.8,,0,0.,4.8,0.,4.8
1979-03-09 00:05:59.520 ,0,0,,0,0.,4.8,0.,4.8,,0,0.,4.8,0.,4.8
1979-03-09 00:06:04.320 ,0,0,,0,0.,4.8,0.,4.8,,0,0.,4.8,0.,4.8
1979-03-09 00:06:09.120 ,0,0,,0,0.,4.8,0.,4.8,,0,0.,4.8,0.,4.8
1979-03-09 00:06:13.920 ,0,0,,0,0.,4.8,0.,4.8,,0,0.,4.8,0.,4.8
1979-03-09 00:06:18.720 ,0,0,,0,0.,4.8,0.,4.8,,0,0.,4.8,0.,4.8
1979-03-09 00:06:23.520 ,1,0,,0,0.,4.8,0.,4.8,,0,0.,4.8,0.,4.8
1979-03-09 00:06:28.320 ,1,0,,0,0.,4.8,0.,4.8,,0,0.,4.8,0.,4.8
1979-03-09 00:06:33.120 ,1,0,,0,0.,4.8,0.,4.8,,0,0.,4.8,0.,4.8
1979-03-09 00:06:37.920 ,1,0,,0,1.,4.8,0.,4.8,,0,0.,4.8,0.,4.8
1979-03-09 00:06:42.720 ,1,0,,0,0.,4.8,0.,4.8,,0,0.,4.8,0.,4.8
1979-03-09 00:06:47.520 ,2,0,,0,0.,4.8,0.,4.8,,0,0.,4.8,0.,4.8
1979-03-09 00:06:52.320 ,2,0,,0,0.,4.8,0.,4.8,,0,0.,4.8,0.,4.8
1979-03-09 00:06:57.120 ,2,0,,0,0.,4.8,0.,4.8,,0,0.,4.8,0.,4.8
1979-03-09 00:07:01.920 ,2,0,,0,0.,4.8,0.,4.8,,0,0.,4.8,0.,4.8
1979-03-09 00:07:06.720 ,2,0,,0,0.,4.8,0.,4.8,,0,0.,4.8,0.,4.8
1979-03-09 00:07:11.520 ,3,0,,0,1.,4.8,0.,4.8,,0,0.,4.8,0.,4.8
1979-03-09 00:07:16.320 ,3,0,,0,0.,4.8,0.,4.8,,0,0.,4.8,0.,4.8
1979-03-09 00:07:21.120 ,3,0,,0,0.,4.8,0.,4.8,,0,0.,4.8,0.,4.8
1979-03-09 00:07:25.920 ,3,0,,0,0.,4.8,0.,4.8,,0,0.,4.8,0.,4.8
1979-03-09 00:07:30.720 ,3,0,,0,0.,4.8,0.,4.8,,0,0.,4.8,0.,4.8
1979-03-09 00:07:35.520 ,4,0,,0,0.,4.8,0.,4.8,,0,0.,4.8,0.,4.8
1979-03-09 00:07:40.320 ,4,0,,0,0.,4.8,0.,4.8,,0,0.,4.8,0.,4.8
1979-03-09 00:07:45.120 ,4,0,,0,0.,4.8,0.,4.8,,0,0.,4.8,0.,4.8
1979-03-09 00:07:49.920 ,4,0,,0,0.,4.8,0.,4.8,,0,0.,4.8,0.,4.8
1979-03-09 00:07:54.720 ,4,0,,0,0.,4.8,0.,4.8,,0,0.,4.8,0.,4.8
1979-03-09 00:07:59.520 ,5,0,,0,0.,4.8,0.,4.8,,0,0.,4.8,0.,4.8
1979-03-09 00:08:04.320 ,5,0,,0,0.,4.8,0.,4.8,,0,0.,4.8,0.,4.8
1979-03-09 00:08:09.120 ,5,0,,0,0.,4.8,0.,4.8,,0,0.,4.8,0.,4.8
1979-03-09 00:08:13.920 ,5,0,,0,0.,4.8,0.,4.8,,0,0.,4.8,0.,4.8
1979-03-09 00:08:18.720 ,5,0,,0,0.,4.8,0.,4.8,,0,0.,4.8,0.,4.8
1979-03-09 00:08:23.520 ,6,0,,0,0.,4.8,0.,4.8,,0,0.,4.8,0.,4.8
1979-03-09 00:08:28.320 ,6,0,,0,0.,4.8,0.,4.8,,0,0.,4.8,0.,4.8
1979-03-09 00:08:33.120 ,6,0,,0,0.,4.8,0.,4.8,,0,0.,4.8,0.,4.8
1979-03-09 00:08:37.920 ,6,0,,0,0.,4.8,0.,4.8,,0,0.,4.8,0.,4.8
1979-03-09 00:08:42.720 ,6,0,,0,0.,4.8,0.,4.8,,0,0.,4.8,0.,4.8
1979-03-09 00:08:47.520 ,7,0,,0,0.,4.8,0.,4.8,,0,0.,4.8,1.,4.8
1979-03-09 00:08:52.320 ,7,0,,0,0.,4.8,0.,4.8,,0,0.,4.8,0.,4.8
1979-03-09 00:08:57.120 ,7,0,,0,0.,4.8,0.,4.8,,0,0.,4.8,0.,4.8
1979-03-09 00:09:01.920 ,7,0,,0,3.,4.8,0.,4.8,,0,0.,4.8,0.,4.8
1979-03-09 00:09:06.720 ,7,0,,0,5.,4.8,0.,4.8,,0,0.,4.8,0.,4.8
1979-03-09 00:09:11.520 ,7,0,,0,7.,4.8,0.,4.8,,0,0.,4.8,0.,4.8
1979-03-09 00:09:16.320 ,7,0,,0,5.,4.8,0.,4.8,,0,0.,4.8,0.,4.8
1979-03-09 00:09:21.120 ,7,0,,0,4.,4.8,0.,4.8,,0,0.,4.8,0.,4.8
1979-03-09 00:09:25.920 ,7,0,,0,0.,4.8,0.,4.8,,0,0.,4.8,0.,4.8
1979-03-09 00:09:30.720 ,7,0,,0,0.,4.8,0.,4.8,,0,0.,4.8,0.,4.8
1979-03-09 00:09:35.520 ,6,0,,0,0.,4.8,0.,4.8,,0,0.,4.8,0.,4.8
1979-03-09 00:09:40.320 ,6,0,,0,0.,4.8,0.,4.8,,0,0.,4.8,0.,4.8
1979-03-09 00:09:45.120 ,6,0,,0,0.,4.8,0.,4.8,,0,0.,4.8,0.,4.8
1979-03-09 00:09:49.920 ,6,0,,0,0.,4.8,0.,4.8,,0,0.,4.8,0.,4.8
1979-03-09 00:09:54.720 ,6,0,,0,0.,4.8,0.,4.8,,0,0.,4.8,0.,4.8
1979-03-09 00:09:59.520 ,5,0,,0,0.,4.8,0.,4.8,,0,0.,4.8,0.,4.8
1979-03-09 00:10:04.320 ,5,0,,0,1.,4.8,0.,4.8,,0,0.,4.8,0.,4.8
1979-03-09 00:10:09.120 ,5,0,,0,0.,4.8,0.,4.8,,0,0.,4.8,1.,4.8
1979-03-09 00:10:13.920 ,5,0,,0,0.,4.8,0.,4.8,,0,0.,4.8,0.,4.8
1979-03-09 00:10:18.720 ,5,0,,0,0.,4.8,0.,4.8,,0,0.,4.8,0.,4.8
1979-03-09 00:10:23.520 ,4,0,,0,0.,4.8,0.,4.8,,0,0.,4.8,0.,4.8
1979-03-09 00:10:28.320 ,4,0,,0,0.,4.8,0.,4.8,,0,0.,4.8,1.,4.8
1979-03-09 00:10:33.120 ,4,0,,0,0.,4.8,0.,4.8,,0,0.,4.8,0.,4.8
1979-03-09 00:10:37.920 ,4,0,,0,1.,4.8,1.,4.8,,0,0.,4.8,1.,4.8
1979-03-09 00:10:42.720 ,4,0,,0,0.,4.8,0.,4.8,,0,0.,4.8,0.,4.8
1979-03-09 00:10:47.520 ,3,0,,0,1.,4.8,0.,4.8,,0,0.,4.8,0.,4.8
1979-03-09 00:10:52.320 ,3,0,,0,1.,4.8,0.,4.8,,0,0.,4.8,0.,4.8
1979-03-09 00:10:57.120 ,3,0,,0,0.,4.8,0.,4.8,,0,0.,4.8,0.,4.8
1979-03-09 00:11:01.920 ,3,0,,0,0.,4.8,0.,4.8,,0,0.,4.8,0.,4.8
1979-03-09 00:11:06.720 ,3,0,,0,0.,4.8,0.,4.8,,0,0.,4.8,0.,4.8
1979-03-09 00:11:11.520 ,2,0,,0,0.,4.8,0.,4.8,,0,0.,4.8,0.,4.8
1979-03-09 00:11:16.320 ,2,0,,0,0.,4.8,0.,4.8,,0,0.,4.8,0.,4.8
1979-03-09 00:11:21.120 ,2,0,,0,0.,4.8,0.,4.8,,0,0.,4.8,0.,4.8
1979-03-09 00:11:25.920 ,2,0,,0,0.,4.8,0.,4.8,,0,0.,4.8,0.,4.8
1979-03-09 00:11:30.720 ,2,0,,0,0.,4.8,0.,4.8,,0,0.,4.8,0.,4.8
1979-03-09 00:11:35.520 ,1,0,,0,0.,4.8,0.,4.8,,0,0.,4.8,0.,4.8
1979-03-09 00:11:40.320 ,1,0,,0,0.,4.8,0.,4.8,,0,0.,4.8,0.,4.8
1979-03-09 00:11:45.120 ,1,0,,0,0.,4.8,0.,4.8,,0,0.,4.8,0.,4.8
1979-03-09 00:11:49.920 ,1,0,,0,0.,4.8,0.,4.8,,0,0.,4.8,0.,4.8
1979-03-09 00:11:54.720 ,1,0,,0,0.,4.8,0.,4.8,,0,0.,4.8,0.,4.8
1979-03-09 00:11:59.520 ,0,0,,0,0.,4.8,0.,4.8,,0,0.,4.8,0.,4.8
1979-03-09 00:12:04.320 ,0,0,,0,0.,4.8,0.,4.8,,0,0.,4.8,0.,4.8
1979-03-09 00:12:09.120 ,0,0,,0,0.,4.8,0.,4.8,,0,0.,4.8,0.,4.8
1979-03-09 00:12:13.920 ,0,0,,0,0.,4.8,0.,4.8,,0,0.,4.8,0.,4.8
1979-03-09 00:12:18.720 ,0,0,,0,0.,4.8,0.,4.8,,0,0.,4.8,0.,4.8
1979-03-09 00:12:23.520 ,0,0,,0,0.,4.8,0.,4.8,,0,0.,4.8,0.,4.8
1979-03-09 00:12:28.320 ,0,0,,0,0.,4.8,0.,4.8,,0,0.,4.8,0.,4.8
1979-03-09 00:12:33.120 ,0,0,,0,0.,4.8,0.,4.8,,0,0.,4.8,0.,4.8
1979-03-09 00:12:37.920 ,0,0,,0,0.,4.8,0.,4.8,,0,0.,4.8,0.,4.8
1979-03-09 00:12:42.720 ,0,0,,0,0.,4.8,0.,4.8,,0,0.,4.8,0.,4.8
1979-03-09 00:12:47.520 ,1,0,,0,0.,4.8,0.,4.8,,0,0.,4.8,0.,4.8
1979-03-09 00:12:52.320 ,1,0,,0,0.,4.8,0.,4.8,,0,0.,4.8,0.,4.8
1979-03-09 00:12:57.120 ,1,0,,0,0.,4.8,0.,4.8,,0,0.,4.8,0.,4.8
1979-03-09 00:13:01.920 ,1,0,,0,0.,4.8,0.,4.8,,0,0.,4.8,0.,4.8
1979-03-09 00:13:06.720 ,1,0,,0,0.,4.8,0.,4.8,,0,0.,4.8,0.,4.8
1979-03-09 00:13:11.520 ,2,0,,0,1.,4.8,0.,4.8,,0,0.,4.8,0.,4.8
1979-03-09 00:13:16.320 ,2,0,,0,0.,4.8,0.,4.8,,0,0.,4.8,0.,4.8
1979-03-09 00:13:21.120 ,2,0,,0,1.,4.8,0.,4.8,,0,0.,4.8,0.,4.8
1979-03-09 00:13:25.920 ,2,0,,0,0.,4.8,0.,4.8,,0,0.,4.8,0.,4.8
1979-03-09 00:13:30.720 ,2,0,,0,0.,4.8,0.,4.8,,0,0.,4.8,0.,4.8
1979-03-09 00:13:35.520 ,3,0,,0,0.,4.8,0.,4.8,,0,0.,4.8,0.,4.8
1979-03-09 00:13:40.320 ,3,0,,0,0.,4.8,0.,4.8,,0,0.,4.8,0.,4.8
1979-03-09 00:13:45.120 ,3,0,,0,0.,4.8,0.,4.8,,0,0.,4.8,0.,4.8
1979-03-09 00:13:49.920 ,3,0,,0,0.,4.8,0.,4.8,,0,0.,4.8,0.,4.8
1979-03-09 00:13:54.720 ,3,0,,0,0.,4.8,0.,4.8,,0,0.,4.8,0.,4.8
1979-03-09 00:13:59.520 ,4,0,,0,0.,4.8,0.,4.8,,0,0.,4.8,0.,4.8
1979-03-09 00:14:04.320 ,4,0,,0,0.,4.8,0.,4.8,,0,0.,4.8,0.,4.8
1979-03-09 00:14:09.120 ,4,0,,0,1.,4.8,0.,4.8,,0,0.,4.8,0.,4.8
1979-03-09 00:14:13.920 ,4,0,,0,0.,4.8,0.,4.8,,0,0.,4.8,0.,4.8
1979-03-09 00:14:18.720 ,4,0,,0,0.,4.8,0.,4.8,,0,0.,4.8,0.,4.8
1979-03-09 00:14:23.520 ,5,0,,0,0.,4.8,0.,4.8,,0,0.,4.8,1.,4.8
1979-03-09 00:14:28.320 ,5,0,,0,0.,4.8,0.,4.8,,0,0.,4.8,3.,4.8
1979-03-09 00:14:33.120 ,5,0,,0,1.,4.8,0.,4.8,,0,0.,4.8,1.,4.8
1979-03-09 00:14:37.920 ,5,0,,0,2.,4.8,1.,4.8,,0,0.,4.8,2.,4.8
1979-03-09 00:14:42.720 ,5,0,,0,3.,4.8,0.,4.8,,0,0.,4.8,3.,4.8
1979-03-09 00:14:47.520 ,6,0,,0,5.,4.8,2.,4.8,,0,0.,4.8,3.,4.8
1979-03-09 00:14:52.320 ,6,0,,0,4.,4.8,1.,4.8,,0,0.,4.8,1.,4.8
1979-03-09 00:14:57.120 ,6,0,,0,1.,4.8,1.,4.8,,0,0.,4.8,0.,4.8
1979-03-09 00:15:01.920 ,6,0,,0,0.,4.8,0.,4.8,,0,0.,4.8,0.,4.8
1979-03-09 00:15:06.720 ,6,0,,0,0.,4.8,0.,4.8,,0,0.,4.8,1.,4.8
1979-03-09 00:15:11.520 ,7,0,,0,0.,4.8,0.,4.8,,0,0.,4.8,0.,4.8
1979-03-09 00:15:16.320 ,7,0,,0,0.,4.8,0.,4.8,,0,0.,4.8,0.,4.8
1979-03-09 00:15:21.120 ,7,0,,0,1.,4.8,0.,4.8,,0,0.,4.8,0.,4.8
1979-03-09 00:15:25.920 ,7,0,,0,1.,4.8,0.,4.8,,0,0.,4.8,0.,4.8
1979-03-09 00:15:30.720 ,7,0,,0,6.,4.8,0.,4.8,,0,0.,4.8,0.,4.8
1979-03-09 00:15:35.520 ,7,0,,0,8.,4.8,0.,4.8,,0,0.,4.8,0.,4.8
1979-03-09 00:15:40.320 ,7,0,,0,9.,4.8,0.,4.8,,0,0.,4.8,0.,4.8
1979-03-09 00:15:45.120 ,7,0,,0,3.,4.8,0.,4.8,,0,0.,4.8,0.,4.8
1979-03-09 00:15:49.920 ,7,0,,0,0.,4.8,0.,4.8,,0,0.,4.8,0.,4.8
1979-03-09 00:15:54.720 ,7,0,,0,0.,4.8,0.,4.8,,0,0.,4.8,0.,4.8
1979-03-09 00:15:59.520 ,6,0,,0,0.,4.8,0.,4.8,,0,0.,4.8,0.,4.8
1979-03-09 00:16:04.320 ,6,0,,0,0.,4.8,0.,4.8,,0,0.,4.8,0.,4.8
1979-03-09 00:16:09.120 ,6,0,,0,1.,4.8,0.,4.8,,0,0.,4.8,1.,4.8
1979-03-09 00:16:13.920 ,6,0,,0,1.,4.8,0.,4.8,,0,0.,4.8,0.,4.8
1979-03-09 00:16:18.720 ,6,0,,0,1.,4.8,0.,4.8,,0,0.,4.8,2.,4.8
1979-03-09 00:16:23.520 ,5,0,,0,1.,4.8,1.,4.8,,0,0.,4.8,0.,4.8
1979-03-09 00:16:28.320 ,5,0,,0,5.,4.8,0.,4.8,,0,0.,4.8,1.,4.8
1979-03-09 00:16:33.120 ,5,0,,0,7.,4.8,5.,4.8,,0,0.,4.8,3.,4.8
1979-03-09 00:16:37.920 ,5,0,,0,0.,4.8,0.,4.8,,0,0.,4.8,5.,4.8
1979-03-09 00:16:42.720 ,5,0,,0,0.,4.8,0.,4.8,,0,0.,4.8,1.,4.8
1979-03-09 00:16:47.520 ,4,0,,0,0.,4.8,0.,4.8,,0,0.,4.8,6.,4.8
1979-03-09 00:16:52.320 ,4,0,,0,0.,4.8,0.,4.8,,0,0.,4.8,5.,4.8
1979-03-09 00:16:57.120 ,4,0,,0,1.,4.8,0.,4.8,,0,0.,4.8,3.,4.8
1979-03-09 00:17:01.920 ,4,0,,0,4.,4.8,0.,4.8,,0,0.,4.8,0.,4.8
1979-03-09 00:17:06.720 ,4,0,,0,3.,4.8,2.,4.8,,0,0.,4.8,3.,4.8
1979-03-09 00:17:11.520 ,3,0,,0,8.,4.8,5.,4.8,,0,0.,4.8,2.,4.8
1979-03-09 00:17:16.320 ,3,0,,0,1.,4.8,1.,4.8,,0,0.,4.8,1.,4.8
1979-03-09 00:17:21.120 ,3,0,,0,0.,4.8,0.,4.8,,0,0.,4.8,0.,4.8
1979-03-09 00:17:25.920 ,3,0,,0,0.,4.8,0.,4.8,,0,0.,4.8,1.,4.8
1979-03-09 00:17:30.720 ,3,0,,0,0.,4.8,0.,4.8,,0,0.,4.8,1.,4.8
1979-03-09 00:17:35.520 ,2,0,,0,0.,4.8,0.,4.8,,0,0.,4.8,0.,4.8
1979-03-09 00:17:40.320 ,2,0,,0,0.,4.8,0.,4.8,,0,0.,4.8,0.,4.8
1979-03-09 00:17:45.120 ,2,0,,0,0.,4.8,0.,4.8,,0,0.,4.8,0.,4.8
1979-03-09 00:17:49.920 ,2,0,,0,0.,4.8,0.,4.8,,0,0.,4.8,0.,4.8
1979-03-09 00:17:54.720 ,2,0,,0,0.,4.8,0.,4.8,,0,0.,4.8,0.,4.8
1979-03-09 00:17:59.520 ,1,0,,0,1.,4.8,0.,4.8,,0,0.,4.8,0.,4.8
1979-03-09 00:18:04.320 ,1,0,,0,0.,4.8,0.,4.8,,0,0.,4.8,0.,4.8
1979-03-09 00:18:09.120 ,1,0,,0,0.,4.8,0.,4.8,,0,0.,4.8,1.,4.8
1979-03-09 00:18:13.920 ,1,0,,0,0.,4.8,0.,4.8,,0,0.,4.8,0.,4.8
1979-03-09 00:18:18.720 ,1,0,,0,0.,4.8,0.,4.8,,0,0.,4.8,0.,4.8
1979-03-09 00:18:23.520 ,0,0,,0,0.,4.8,0.,4.8,,0,0.,4.8,0.,4.8
1979-03-09 00:18:28.320 ,0,0,,0,0.,4.8,0.,4.8,,0,0.,4.8,0.,4.8
1979-03-09 00:18:33.120 ,0,0,,0,0.,4.8,0.,4.8,,0,0.,4.8,0.,4.8
1979-03-09 00:18:37.920 ,0,0,,0,0.,4.8,0.,4.8,,0,0.,4.8,0.,4.8
1979-03-09 00:18:42.720 ,0,0,,0,1.,4.8,0.,4.8,,0,0.,4.8,0.,4.8
1979-03-09 00:18:47.520 ,0,0,,0,0.,4.8,0.,4.8,,0,0.,4.8,0.,4.8
1979-03-09 00:18:52.320 ,0,0,,0,0.,4.8,0.,4.8,,0,0.,4.8,0.,4.8
1979-03-09 00:18:57.120 ,0,0,,0,0.,4.8,0.,4.8,,0,0.,4.8,0.,4.8
1979-03-09 00:19:01.920 ,0,0,,0,0.,4.8,0.,4.8,,0,0.,4.8,0.,4.8
1979-03-09 00:19:06.720 ,0,0,,0,0.,4.8,0.,4.8,,0,0.,4.8,0.,4.8
1979-03-09 00:19:11.520 ,1,0,,0,0.,4.8,0.,4.8,,0,0.,4.8,0.,4.8
1979-03-09 00:19:16.320 ,1,0,,0,0.,4.8,0.,4.8,,0,0.,4.8,0.,4.8
1979-03-09 00:19:21.120 ,1,0,,0,0.,4.8,0.,4.8,,0,0.,4.8,0.,4.8
1979-03-09 00:19:25.920 ,1,0,,0,0.,4.8,0.,4.8,,0,0.,4.8,0.,4.8
1979-03-09 00:19:30.720 ,1,0,,0,0.,4.8,0.,4.8,,0,0.,4.8,0.,4.8
1979-03-09 00:19:35.520 ,2,0,,0,0.,4.8,0.,4.8,,0,0.,4.8,0.,4.8
1979-03-09 00:19:40.320 ,2,0,,0,0.,4.8,0.,4.8,,0,0.,4.8,1.,4.8
1979-03-09 00:19:45.120 ,2,0,,0,0.,4.8,0.,4.8,,0,0.,4.8,0.,4.8
1979-03-09 00:19:49.920 ,2,0,,0,0.,4.8,0.,4.8,,0,0.,4.8,0.,4.8
1979-03-09 00:19:54.720 ,2,0,,0,0.,4.8,0.,4.8,,0,0.,4.8,0.,4.8
1979-03-09 00:19:59.520 ,3,0,,0,0.,4.8,0.,4.8,,0,0.,4.8,0.,4.8
1979-03-09 00:20:04.320 ,3,0,,0,0.,4.8,0.,4.8,,0,0.,4.8,0.,4.8
1979-03-09 00:20:09.120 ,3,0,,0,0.,4.8,0.,4.8,,0,0.,4.8,3.,4.8
1979-03-09 00:20:13.920 ,3,0,,0,4.,4.8,0.,4.8,,0,0.,4.8,1.,4.8
1979-03-09 00:20:18.720 ,3,0,,0,5.,4.8,1.,4.8,,0,0.,4.8,4.,4.8
1979-03-09 00:20:23.520 ,4,0,,0,0.,4.8,0.,4.8,,0,0.,4.8,2.,4.8
1979-03-09 00:20:28.320 ,4,0,,0,15.,4.8,3.,4.8,,0,0.,4.8,7.,4.8
1979-03-09 00:20:33.120 ,4,0,,0,29.,4.8,5.,4.8,,0,0.,4.8,22.,4.8
1979-03-09 00:20:37.920 ,4,0,,0,0.,4.8,0.,4.8,,0,0.,4.8,16.,4.8
1979-03-09 00:20:42.720 ,4,0,,0,0.,4.8,0.,4.8,,0,0.,4.8,25.,4.8
1979-03-09 00:20:47.520 ,5,0,,0,0.,4.8,0.,4.8,,0,0.,4.8,15.,4.8
1979-03-09 00:20:52.320 ,5,0,,0,0.,4.8,0.,4.8,,0,0.,4.8,13.,4.8
1979-03-09 00:20:57.120 ,5,0,,0,7.,4.8,2.,4.8,,0,0.,4.8,13.,4.8
1979-03-09 00:21:01.920 ,5,0,,0,38.,4.8,11.,4.8,,0,0.,4.8,13.,4.8
1979-03-09 00:21:06.720 ,5,0,,0,45.,4.8,11.,4.8,,0,0.,4.8,16.,4.8
1979-03-09 00:21:11.520 ,6,0,,0,53.,4.8,12.,4.8,,0,0.,4.8,14.,4.8
1979-03-09 00:21:16.320 ,6,0,,0,33.,4.8,10.,4.8,,0,0.,4.8,6.,4.8
1979-03-09 00:21:21.120 ,6,0,,0,21.,4.8,2.,4.8,,0,0.,4.8,5.,4.8
1979-03-09 00:21:25.920 ,6,0,,0,0.,4.8,0.,4.8,,0,0.,4.8,4.,4.8
1979-03-09 00:21:30.720 ,6,0,,0,0.,4.8,0.,4.8,,0,0.,4.8,2.,4.8
1979-03-09 00:21:35.520 ,7,0,,0,0.,4.8,0.,4.8,,0,0.,4.8,5.,4.8
1979-03-09 00:21:40.320 ,7,0,,0,0.,4.8,0.,4.8,,0,0.,4.8,11.,4.8
1979-03-09 00:21:45.120 ,7,0,,0,1.,4.8,0.,4.8,,0,0.,4.8,0.,4.8
1979-03-09 00:21:49.920 ,7,0,,0,3.,4.8,0.,4.8,,0,0.,4.8,0.,4.8
1979-03-09 00:21:54.720 ,7,0,,0,1.,4.8,0.,4.8,,0,0.,4.8,0.,4.8
1979-03-09 00:21:59.520 ,7,0,,0,4.,4.8,0.,4.8,,0,0.,4.8,0.,4.8
1979-03-09 00:22:04.320 ,7,0,,0,6.,4.8,0.,4.8,,0,0.,4.8,0.,4.8
1979-03-09 00:22:09.120 ,7,0,,0,6.,4.8,0.,4.8,,0,0.,4.8,0.,4.8
1979-03-09 00:22:13.920 ,7,0,,0,0.,4.8,0.,4.8,,0,0.,4.8,0.,4.8
1979-03-09 00:22:18.720 ,7,0,,0,0.,4.8,0.,4.8,,0,0.,4.8,0.,4.8
1979-03-09 00:22:23.520 ,6,0,,0,0.,4.8,0.,4.8,,0,0.,4.8,0.,4.8
1979-03-09 00:22:28.320 ,6,0,,0,0.,4.8,0.,4.8,,0,0.,4.8,2.,4.8
1979-03-09 00:22:33.120 ,6,0,,0,1.,4.8,0.,4.8,,0,0.,4.8,8.,4.8
1979-03-09 00:22:37.920 ,6,0,,0,22.,4.8,5.,4.8,,0,0.,4.8,5.,4.8
1979-03-09 00:22:42.720 ,6,0,,0,24.,4.8,8.,4.8,,0,0.,4.8,6.,4.8
1979-03-09 00:22:47.520 ,5,0,,0,24.,4.8,5.,4.8,,0,0.,4.8,9.,4.8
1979-03-09 00:22:52.320 ,5,0,,0,33.,4.8,12.,4.8,,0,0.,4.8,9.,4.8
1979-03-09 00:22:57.120 ,5,0,,0,45.,4.8,10.,4.8,,0,0.,4.8,25.,4.8
1979-03-09 00:23:01.920 ,5,0,,0,0.,4.8,0.,4.8,,0,0.,4.8,25.,4.8
1979-03-09 00:23:06.720 ,5,0,,0,0.,4.8,0.,4.8,,0,0.,4.8,17.,4.8
1979-03-09 00:23:11.520 ,4,0,,0,0.,4.8,0.,4.8,,0,0.,4.8,25.,4.8
1979-03-09 00:23:16.320 ,4,0,,0,0.,4.8,0.,4.8,,0,0.,4.8,15.,4.8
1979-03-09 00:23:21.120 ,4,0,,0,10.,4.8,2.,4.8,,0,0.,4.8,22.,4.8
1979-03-09 00:23:25.920 ,4,0,,0,54.,4.8,10.,4.8,,0,0.,4.8,20.,4.8
1979-03-09 00:23:30.720 ,4,0,,0,47.,4.8,13.,4.8,,0,0.,4.8,23.,4.8
1979-03-09 00:23:35.520 ,3,0,,0,51.,4.8,16.,4.8,,0,0.,4.8,20.,4.8
1979-03-09 00:23:40.320 ,3,0,,0,44.,4.8,11.,4.8,,0,0.,4.8,21.,4.8
1979-03-09 00:23:45.120 ,3,0,,0,25.,4.8,5.,4.8,,0,0.,4.8,12.,4.8
1979-03-09 00:23:49.920 ,3,0,,0,0.,4.8,0.,4.8,,0,0.,4.8,15.,4.8
1979-03-09 00:23:54.720 ,3,0,,0,0.,4.8,0.,4.8,,0,0.,4.8,17.,4.8
1979-03-09 00:23:59.520 ,2,0,,0,0.,4.8,0.,4.8,,0,0.,4.8,16.,4.8
1979-03-09 00:24:04.320 ,2,0,,0,0.,4.8,0.,4.8,,0,0.,4.8,11.,4.8
1979-03-09 00:24:09.120 ,2,0,,0,1.,4.8,0.,4.8,,0,0.,4.8,2.,4.8
1979-03-09 00:24:13.920 ,2,0,,0,6.,4.8,1.,4.8,,0,0.,4.8,3.,4.8
1979-03-09 00:24:18.720 ,2,0,,0,4.,4.8,2.,4.8,,0,0.,4.8,2.,4.8
1979-03-09 00:24:23.520 ,1,0,,0,7.,4.8,1.,4.8,,0,0.,4.8,5.,4.8
1979-03-09 00:24:28.320 ,1,0,,0,7.,4.8,1.,4.8,,0,0.,4.8,0.,4.8
1979-03-09 00:24:33.120 ,1,0,,0,5.,4.8,0.,4.8,,0,0.,4.8,0.,4.8
1979-03-09 00:24:37.920 ,1,0,,0,1.,4.8,0.,4.8,,0,0.,4.8,0.,4.8
1979-03-09 00:24:42.720 ,1,0,,0,0.,4.8,0.,4.8,,0,0.,4.8,1.,4.8
1979-03-09 00:24:47.520 ,0,0,,0,0.,4.8,0.,4.8,,0,0.,4.8,1.,4.8
1979-03-09 00:24:52.320 ,0,0,,0,0.,4.8,0.,4.8,,0,0.,4.8,0.,4.8
1979-03-09 00:24:57.120 ,0,0,,0,0.,4.8,0.,4.8,,0,0.,4.8,1.,4.8
1979-03-09 00:25:01.920 ,0,0,,0,6.,4.8,1.,4.8,,0,0.,4.8,0.,4.8
1979-03-09 00:25:06.720 ,0,0,,0,4.,4.8,0.,4.8,,0,0.,4.8,1.,4.8
1979-03-09 00:25:11.520 ,0,0,,0,3.,4.8,0.,4.8,,0,0.,4.8,0.,4.8
1979-03-09 00:25:16.320 ,0,0,,0,6.,4.8,1.,4.8,,0,0.,4.8,0.,4.8
1979-03-09 00:25:21.120 ,0,0,,0,3.,4.8,1.,4.8,,0,0.,4.8,1.,4.8
1979-03-09 00:25:25.920 ,0,0,,0,0.,4.8,0.,4.8,,0,0.,4.8,0.,4.8
1979-03-09 00:25:30.720 ,0,0,,0,0.,4.8,0.,4.8,,0,0.,4.8,1.,4.8
1979-03-09 00:25:35.520 ,1,0,,0,0.,4.8,0.,4.8,,0,0.,4.8,0.,4.8
1979-03-09 00:25:40.320 ,1,0,,0,0.,4.8,0.,4.8,,0,0.,4.8,2.,4.8
1979-03-09 00:25:45.120 ,1,0,,0,2.,4.8,0.,4.8,,0,0.,4.8,3.,4.8
1979-03-09 00:25:49.920 ,1,0,,0,8.,4.8,2.,4.8,,0,0.,4.8,1.,4.8
1979-03-09 00:25:54.720 ,1,0,,0,4.,4.8,0.,4.8,,0,0.,4.8,3.,4.8
1979-03-09 00:25:59.520 ,2,0,,0,13.,4.8,1.,4.8,,0,0.,4.8,0.,4.8
1979-03-09 00:26:04.320 ,2,0,,0,15.,4.8,6.,4.8,,0,0.,4.8,4.,4.8
1979-03-09 00:26:09.120 ,2,0,,0,19.,4.8,5.,4.8,,0,0.,4.8,7.,4.8
1979-03-09 00:26:13.920 ,2,0,,0,0.,4.8,0.,4.8,,0,0.,4.8,7.,4.8
1979-03-09 00:26:18.720 ,2,0,,0,0.,4.8,0.,4.8,,0,0.,4.8,8.,4.8
1979-03-09 00:26:23.520 ,3,0,,0,0.,4.8,0.,4.8,,0,0.,4.8,13.,4.8
1979-03-09 00:26:28.320 ,3,0,,0,0.,4.8,0.,4.8,,0,0.,4.8,18.,4.8
1979-03-09 00:26:33.120 ,3,0,,0,11.,4.8,3.,4.8,,0,0.,4.8,25.,4.8
1979-03-09 00:26:37.920 ,3,0,,0,46.,4.8,14.,4.8,,0,0.,4.8,21.,4.8
1979-03-09 00:26:42.720 ,3,0,,0,44.,4.8,19.,4.8,,0,0.,4.8,20.,4.8
1979-03-09 00:26:47.520 ,4,0,,0,57.,4.8,15.,4.8,,0,0.,4.8,24.,4.8
1979-03-09 00:26:52.320 ,4,0,,0,66.,4.8,18.,4.8,,0,0.,4.8,28.,4.8
1979-03-09 00:26:57.120 ,4,0,,0,78.,4.8,27.,4.8,,0,0.,4.8,51.,4.8
1979-03-09 00:27:01.920 ,4,0,,0,0.,4.8,0.,4.8,,0,0.,4.8,41.,4.8
1979-03-09 00:27:06.720 ,4,0,,0,0.,4.8,0.,4.8,,0,0.,4.8,49.,4.8
1979-03-09 00:27:11.520 ,5,0,,0,0.,4.8,0.,4.8,,0,0.,4.8,33.,4.8
1979-03-09 00:27:16.320 ,5,0,,0,0.,4.8,0.,4.8,,0,0.,4.8,41.,4.8
1979-03-09 00:27:21.120 ,5,0,,0,13.,4.8,5.,4.8,,0,0.,4.8,33.,4.8
1979-03-09 00:27:25.920 ,5,0,,0,90.,4.8,27.,4.8,,0,0.,4.8,30.,4.8
1979-03-09 00:27:30.720 ,5,0,,0,94.,4.8,38.,4.8,,0,0.,4.8,49.,4.8
1979-03-09 00:27:35.520 ,6,0,,0,80.,4.8,21.,4.8,,0,0.,4.8,43.,4.8
1979-03-09 00:27:40.320 ,6,0,,0,88.,4.8,24.,4.8,,0,0.,4.8,31.,4.8
1979-03-09 00:27:45.120 ,6,0,,0,43.,4.8,9.,4.8,,0,0.,4.8,21.,4.8
1979-03-09 00:27:49.920 ,6,0,,0,0.,4.8,0.,4.8,,0,0.,4.8,26.,4.8
1979-03-09 00:27:54.720 ,6,0,,0,0.,4.8,0.,4.8,,0,0.,4.8,19.,4.8
1979-03-09 00:27:59.520 ,7,0,,0,0.,4.8,0.,4.8,,0,0.,4.8,19.,4.8
1979-03-09 00:28:04.320 ,7,0,,0,0.,4.8,0.,4.8,,0,0.,4.8,15.,4.8
1979-03-09 00:28:09.120 ,7,0,,0,0.,4.8,0.,4.8,,0,0.,4.8,0.,4.8
1979-03-09 00:28:13.920 ,7,0,,0,6.,4.8,0.,4.8,,0,0.,4.8,0.,4.8
1979-03-09 00:28:18.720 ,7,0,,0,6.,4.8,0.,4.8,,0,0.,4.8,0.,4.8
1979-03-09 00:28:23.520 ,7,0,,0,5.,4.8,0.,4.8,,0,0.,4.8,0.,4.8
1979-03-09 00:28:28.320 ,7,0,,0,2.,4.8,0.,4.8,,0,0.,4.8,0.,4.8
1979-03-09 00:28:33.120 ,7,0,,0,6.,4.8,0.,4.8,,0,0.,4.8,0.,4.8
1979-03-09 00:28:37.920 ,7,0,,0,0.,4.8,0.,4.8,,0,0.,4.8,0.,4.8
1979-03-09 00:28:42.720 ,7,0,,0,0.,4.8,0.,4.8,,0,0.,4.8,0.,4.8
1979-03-09 00:28:47.520 ,6,0,,0,0.,4.8,0.,4.8,,0,0.,4.8,0.,4.8
1979-03-09 00:28:52.320 ,6,0,,0,0.,4.8,0.,4.8,,0,0.,4.8,6.,4.8
1979-03-09 00:28:57.120 ,6,0,,0,5.,4.8,2.,4.8,,0,0.,4.8,26.,4.8
1979-03-09 00:29:01.920 ,6,0,,0,56.,4.8,15.,4.8,,0,0.,4.8,41.,4.8
1979-03-09 00:29:06.720 ,6,0,,0,62.,4.8,15.,4.8,,0,0.,4.8,25.,4.8
1979-03-09 00:29:11.520 ,5,0,,0,66.,4.8,18.,4.8,,0,0.,4.8,32.,4.8
1979-03-09 00:29:16.320 ,5,0,,0,74.,4.8,13.,4.8,,0,0.,4.8,34.,4.8
1979-03-09 00:29:21.120 ,5,0,,0,92.,4.8,25.,4.8,,0,0.,4.8,46.,4.8
1979-03-09 00:29:25.920 ,5,0,,0,0.,4.8,0.,4.8,,0,0.,4.8,38.,4.8
1979-03-09 00:29:30.720 ,5,0,,0,0.,4.8,0.,4.8,,0,0.,4.8,43.,4.8
1979-03-09 00:29:35.520 ,4,0,,0,0.,4.8,0.,4.8,,0,0.,4.8,36.,4.8
1979-03-09 00:29:40.320 ,4,0,,0,0.,4.8,0.,4.8,,0,0.,4.8,39.,4.8
1979-03-09 00:29:45.120 ,4,0,,0,17.,4.8,4.,4.8,,0,0.,4.8,60.,4.8
1979-03-09 00:29:49.920 ,4,0,,0,86.,4.8,20.,4.8,,0,0.,4.8,46.,4.8
1979-03-09 00:29:54.720 ,4,0,,0,90.,4.8,25.,4.8,,0,0.,4.8,40.,4.8
1979-03-09 00:29:59.520 ,3,0,,0,84.,4.8,25.,4.8,,0,0.,4.8,35.,4.8